This is the latest recevied weather packets stored in our database for station/object IT9FBN-3. If no packets are shown the sender has not sent any weather packets the latest 10 day(s).
| Time | Temp. | Humidity | Pressure | Rain* | Wind** | Luminosity | Snow |
|---|---|---|---|---|---|---|---|
| 1777491302 | 16.67° C | 69% | 1016.5 hPa | 0 mm | - | - | - |
| 1777491001 | 16.67° C | 70% | 1016.5 hPa | 0 mm | - | - | - |
| 1777490701 | 16.67° C | 70% | 1016.3 hPa | 0 mm | - | - | - |
| 1777490402 | 16.67° C | 71% | 1016.5 hPa | 0 mm | - | - | - |
| 1777490101 | 16.67° C | 72% | 1016.3 hPa | 0 mm | - | - | - |
| 1777489801 | 16.67° C | 72% | 1016.1 hPa | 0 mm | - | - | - |
| 1777489501 | 16.67° C | 72% | 1016.1 hPa | 0 mm | - | - | - |
| 1777489201 | 16.67° C | 72% | 1016.1 hPa | 0 mm | - | - | - |
| 1777488901 | 16.67° C | 73% | 1016.2 hPa | 0 mm | - | - | - |
| 1777488601 | 16.67° C | 73% | 1016.3 hPa | 0 mm | - | - | - |
| 1777488302 | 16.67° C | 73% | 1016.1 hPa | 0 mm | - | - | - |
| 1777488001 | 17.22° C | 71% | 1016.1 hPa | 0 mm | - | - | - |
| 1777487701 | 17.22° C | 69% | 1016 hPa | 0 mm | - | - | - |
| 1777487401 | 17.78° C | 67% | 1016 hPa | 0 mm | - | - | - |
| 1777487102 | 17.78° C | 63% | 1015.9 hPa | 0 mm | - | - | - |
| 1777486801 | 18.33° C | 60% | 1016 hPa | 0 mm | - | - | - |
| 1777486502 | 18.33° C | 60% | 1015.9 hPa | 0 mm | - | - | - |
| 1777486201 | 18.89° C | 60% | 1015.9 hPa | 0 mm | - | - | - |
| 1777485902 | 18.89° C | 60% | 1015.9 hPa | 0 mm | - | - | - |
| 1777485601 | 18.89° C | 59% | 1015.7 hPa | 0 mm | - | - | - |
| 1777485302 | 18.89° C | 59% | 1015.6 hPa | 0 mm | - | - | - |
| 1777485001 | 18.89° C | 58% | 1015.5 hPa | 0 mm | - | - | - |
| 1777484702 | 19.44° C | 58% | 1015.4 hPa | 0 mm | - | - | - |
| 1777484402 | 19.44° C | 58% | 1015.3 hPa | 0 mm | - | - | - |
| 1777484102 | 20° C | 56% | 1015.3 hPa | 0 mm | - | - | - |
* Rain latest hour (hover to see other rain measurements)
** Current wind speed in m/s (hover to see current wind gust speed)